Theta_e
318 318 318 319 319 319 319 320 319 320 321 321 322 322 323 323 323 323 323 323 322 322 322 322 322 322 322 322 323 323 319 315 313 311 311 311 322 327 343 338 340 342 341 328 319 318 315 315 316 322 322 323 325 325 333 336 340 337 325 319 314 317 320 324 325 326 332 330 333 336 337 335 332 337 340 345 339 340 339 339 341 342 340 341 343 345 346 346
318 318 318 318 318 319 319 319 319 320 320 321 321 322 322 322 322 323 323 322 322 321 321 321 322 322 322 322 322 323 318 314 311 312 311 323 329 331 337 351 350 343 341 319 311 313 311 310 314 320 319 319 329 326 334 328 341 329 324 320 314 320 324 331 332 332 331 330 334 335 338 337 335 339 341 336 335 335 332 336 337 334 337 340 343 344 344 344
318 318 318 318 318 318 319 319 319 320 320 320 321 321 321 322 322 322 322 322 321 321 321 321 321 322 322 322 323 322 317 313 313 311 316 338 334 335 342 347 348 344 327 316 315 313 312 311 314 319 319 318 324 323 330 327 333 332 324 318 319 327 330 336 335 333 335 335 333 334 335 337 336 339 341 335 332 333 329 329 332 331 332 336 340 342 342 342
318 317 318 318 318 318 318 319 319 319 319 320 320 320 321 321 321 322 321 321 321 321 321 321 321 322 322 323 323 318 316 312 312 318 325 348 343 343 343 346 348 344 322 317 315 314 316 318 316 320 320 318 321 326 324 327 326 329 324 318 320 328 328 334 337 336 336 338 337 335 336 333 337 339 338 338 331 331 332 335 333 331 332 335 339 340 341 340
317 317 318 318 317 317 318 318 319 319 319 319 320 320 320 320 321 321 321 320 321 321 322 321 321 322 322 323 321 317 311 305 316 324 331 350 351 343 345 346 351 331 318 315 315 313 315 314 315 321 320 316 320 323 324 327 328 326 324 326 326 329 328 336 336 339 337 340 337 336 331 330 342 340 337 336 329 326 331 336 336 335 335 336 337 338 340 338
317 317 317 317 317 317 318 318 318 319 319 319 319 319 319 319 320 320 320 320 321 322 322 322 322 323 323 321 318 317 310 295 313 322 348 352 348 344 345 346 347 323 316 313 310 311 310 311 312 312 317 317 318 318 322 326 328 316 320 325 326 330 331 337 336 338 338 338 335 333 337 339 337 336 338 336 335 336 346 342 338 336 337 338 339 338 337 337
317 317 317 317 317 317 317 317 318 318 317 318 319 318 319 319 319 319 319 320 320 322 324 323 324 323 323 320 317 314 309 310 317 320 351 353 350 348 350 347 343 320 316 311 310 309 309 310 312 312 316 318 320 320 323 322 323 320 316 319 324 331 331 337 334 337 337 336 335 338 339 337 337 331 337 336 337 342 343 345 340 337 337 338 337 337 336 335
316 316 316 316 317 317 317 317 317 318 317 317 318 318 318 319 318 318 319 320 321 323 325 325 324 324 323 318 313 309 309 311 319 323 356 353 347 347 346 339 335 322 316 310 309 308 309 308 309 315 313 316 320 321 323 321 321 317 316 319 329 331 335 335 334 334 337 337 339 336 333 335 337 338 338 335 337 341 343 344 340 337 336 337 336 336 335 335
316 316 316 316 317 317 316 316 317 317 317 317 317 317 318 318 317 318 318 319 320 322 326 325 325 324 323 317 307 304 306 317 325 336 350 346 344 342 333 329 328 321 318 314 311 309 310 309 312 316 312 317 324 321 321 317 311 316 317 320 325 330 332 332 333 335 338 337 336 332 330 335 337 340 334 337 338 342 347 342 338 336 335 335 335 336 335 334
316 316 316 316 316 316 316 317 317 317 317 317 317 317 317 317 317 318 318 319 320 322 326 326 325 323 318 314 311 303 311 317 329 346 343 346 344 336 329 328 326 319 316 315 312 310 309 313 316 320 319 319 321 317 319 315 310 315 312 313 317 332 331 333 333 335 337 337 335 330 329 332 337 334 329 337 340 341 340 339 339 336 334 335 335 336 335 334
315 316 316 316 316 316 316 316 317 317 317 317 316 316 316 317 317 317 317 318 319 322 326 326 326 321 313 313 306 305 322 316 330 340 339 344 338 330 326 329 324 318 315 314 313 313 313 314 319 320 318 315 319 315 315 313 315 312 311 310 311 331 331 333 335 334 334 333 335 333 330 332 335 333 331 335 338 340 338 339 340 338 334 334 335 335 335 334
315 315 315 315 316 316 316 317 316 317 316 316 316 315 316 316 316 317 317 318 319 322 327 325 325 319 315 309 304 307 321 316 317 331 338 340 334 331 329 331 324 318 314 311 313 314 315 316 320 318 310 318 311 315 313 314 313 312 309 304 309 329 327 332 331 333 333 330 335 335 330 328 329 326 334 336 338 338 337 337 338 338 334 334 335 335 334 334
315 315 315 315 316 315 316 316 316 316 316 315 315 315 315 315 315 316 317 318 319 324 327 327 325 320 314 307 311 318 321 322 315 317 333 338 334 336 334 332 325 319 316 312 312 314 317 318 319 315 317 314 313 308 313 315 312 313 309 305 305 321 323 330 333 333 330 331 334 332 312 319 326 330 334 337 336 337 334 334 336 337 334 334 334 334 334 335
315 315 315 315 315 315 316 316 316 315 315 315 314 314 314 314 315 316 318 319 321 321 325 326 324 318 314 310 321 325 323 324 322 314 313 320 318 324 329 330 324 320 317 314 314 316 318 316 315 314 317 313 312 318 314 312 313 305 308 306 298 297 304 329 330 331 327 332 334 330 311 316 325 329 334 336 337 334 331 333 335 336 334 334 334 334 334 335
315 315 315 315 315 315 315 315 315 314 315 314 313 313 313 313 315 317 320 321 322 323 328 326 322 314 311 315 326 329 347 320 313 312 313 312 311 316 318 321 319 318 317 315 314 317 317 317 318 317 313 319 316 310 305 305 305 306 300 294 296 298 296 324 331 329 324 329 334 327 312 316 323 328 334 336 336 335 331 332 333 334 334 334 335 334 335 335
315 314 314 315 315 315 315 314 314 314 314 313 312 312 314 315 317 319 322 322 324 326 327 319 318 315 312 308 318 333 317 311 312 314 314 312 310 311 317 317 318 317 316 314 317 318 318 322 318 316 316 315 310 304 301 300 299 302 299 295 296 298 298 302 322 329 330 328 330 326 312 319 321 330 333 336 335 334 331 330 333 334 334 334 335 335 335 335
314 314 314 314 315 315 315 314 313 314 313 312 312 312 314 317 320 322 324 324 323 324 318 314 319 317 307 317 326 317 309 311 313 311 312 311 310 309 312 316 317 315 315 317 316 318 320 320 318 315 314 306 305 305 299 295 295 296 298 295 298 298 298 298 305 328 329 327 322 327 318 319 322 329 332 334 334 332 330 330 332 333 334 334 335 335 335 335
314 314 314 314 315 315 314 313 313 313 311 311 311 311 310 317 322 325 324 324 322 320 317 320 319 312 306 320 310 308 309 308 308 311 311 311 310 309 309 312 316 316 316 315 320 316 320 313 314 303 305 306 305 301 296 292 296 296 296 296 296 298 299 300 300 313 327 326 322 323 320 320 325 328 330 333 334 331 330 330 331 332 332 333 334 334 335 335
314 314 314 314 314 314 314 313 312 311 311 311 312 315 318 316 317 315 316 318 314 311 307 310 310 298 294 305 315 311 309 307 309 310 308 312 313 310 310 312 315 313 311 310 310 314 315 310 310 306 300 300 302 301 298 300 302 301 301 297 297 295 297 298 303 312 326 322 320 320 317 320 325 326 329 332 333 330 329 331 331 332 332 333 333 334 335 335
314 314 314 314 313 314 314 313 312 310 310 308 307 309 306 301 299 304 309 313 311 308 309 310 317 315 313 313 304 307 309 311 306 306 309 312 310 309 308 309 313 311 308 305 308 312 312 304 299 300 301 302 304 304 304 305 305 305 303 302 299 298 298 301 302 306 327 322 319 320 319 321 324 326 327 331 332 330 329 328 330 330 331 332 332 333 334 335
314 314 314 313 313 313 313 312 311 310 309 307 306 305 298 299 295 293 300 302 304 307 308 306 309 311 310 308 305 305 301 303 306 306 308 320 308 305 303 306 306 304 304 308 308 312 311 301 301 303 304 305 305 305 305 305 305 304 302 300 299 299 297 302 303 306 324 321 318 320 319 320 323 326 328 330 330 328 328 328 329 330 331 332 332 332 334 335
314 314 313 313 312 312 312 311 310 310 309 305 310 305 306 304 306 306 303 296 303 306 305 305 306 303 307 306 306 306 302 301 300 302 311 311 306 302 304 305 304 300 304 306 306 304 301 300 303 306 307 307 307 306 306 305 303 304 301 300 297 298 300 303 304 305 307 319 316 319 317 318 323 326 328 328 329 329 330 329 330 330 330 331 332 332 333 334
314 313 313 313 312 311 311 310 309 308 306 307 306 306 307 308 310 310 306 300 298 305 304 304 302 302 303 305 306 305 300 297 296 301 306 312 304 304 306 302 302 303 305 305 300 298 298 300 305 308 308 307 306 306 305 304 304 302 299 295 295 299 297 294 301 302 304 305 316 318 316 318 322 326 327 329 330 330 331 331 331 332 330 331 332 333 332 333
313 313 313 313 312 311 310 309 308 309 307 308 307 307 312 310 310 307 302 295 294 300 303 305 305 303 301 301 304 301 297 300 300 302 314 307 302 307 305 304 301 301 300 303 303 299 298 304 309 307 307 306 305 305 304 302 298 299 299 298 297 298 298 298 299 302 303 303 317 318 314 314 318 319 322 327 331 331 331 332 332 332 333 334 334 334 334 333
313 314 314 313 311 311 308 308 306 306 309 310 308 311 310 312 311 307 299 295 296 297 306 306 307 306 304 308 307 302 301 302 301 306 313 307 304 302 301 305 303 298 300 303 303 301 301 306 308 306 305 305 304 302 303 302 297 297 299 299 300 300 300 300 301 300 295 295 309 317 305 306 314 319 321 323 326 327 330 329 330 331 331 334 332 333 335 335
313 313 314 312 312 310 308 305 307 307 307 307 309 313 312 311 310 309 299 290 287 296 303 297 304 300 306 302 304 302 301 297 303 305 313 306 312 303 303 297 305 297 302 301 300 299 302 307 305 304 305 304 303 302 303 302 296 294 295 300 301 301 301 300 299 299 291 290 300 315 307 301 313 315 319 322 323 324 327 329 330 331 331 333 333 333 335 335
313 313 313 311 311 308 304 302 307 308 306 308 314 315 313 313 314 306 298 289 285 298 295 300 301 299 305 303 303 302 288 292 303 307 305 313 305 310 298 294 299 302 304 303 302 296 305 304 303 303 303 303 302 299 303 302 296 293 298 302 301 301 299 299 299 297 293 299 300 305 305 300 304 313 320 323 322 322 323 326 328 331 331 332 334 334 335 336
314 313 311 310 309 308 304 305 305 306 309 312 315 315 313 312 310 303 294 283 284 301 296 297 302 305 304 304 303 296 296 301 297 302 306 307 307 302 299 295 296 296 299 298 289 297 301 298 301 300 300 298 300 303 304 304 299 296 302 304 302 302 301 300 298 295 295 296 291 293 300 297 303 313 320 321 318 319 321 324 327 330 332 332 334 335 335 337
313 312 311 310 309 308 309 305 306 307 313 314 315 314 314 311 306 294 288 282 296 297 306 298 307 305 303 303 300 300 300 302 295 300 307 306 307 302 296 297 298 297 298 298 291 296 301 303 300 299 298 295 299 304 305 304 300 302 305 304 304 304 303 302 297 296 294 293 289 294 295 289 288 300 315 319 318 317 320 323 326 329 331 332 333 335 336 337
312 311 311 310 308 309 308 308 305 311 313 314 313 313 312 306 298 293 287 281 299 291 299 299 298 297 301 297 297 300 297 300 301 305 305 301 303 303 302 303 300 298 295 298 296 296 299 306 307 303 299 300 301 302 304 304 305 303 304 303 301 300 300 298 298 295 292 290 288 293 296 292 286 297 314 314 316 320 322 323 326 330 332 333 334 335 335 336
311 310 310 309 304 307 308 303 308 312 313 312 313 311 306 300 294 287 284 290 299 295 301 297 297 300 297 295 291 298 298 299 300 301 297 301 297 299 300 296 299 292 290 291 292 295 298 300 300 300 306 305 305 303 304 305 305 303 300 298 297 293 295 294 292 292 290 283 289 295 296 294 288 289 311 320 323 324 323 322 324 328 331 332 333 334 336 337
309 308 310 307 308 310 306 304 308 310 310 311 311 304 298 289 292 286 289 301 289 292 294 293 299 297 296 297 296 294 294 298 299 298 294 293 292 291 291 291 293 287 286 286 288 294 294 296 298 300 308 305 303 299 300 301 300 301 297 295 291 285 290 285 288 287 285 284 291 296 296 294 290 293 312 319 322 324 324 325 325 329 331 333 334 334 336 337
308 308 308 310 311 308 308 311 312 311 311 312 306 301 293 289 283 289 290 293 289 295 293 301 296 297 297 293 293 298 298 293 297 297 297 296 294 296 298 296 296 293 287 294 290 290 290 295 296 297 301 304 301 297 293 297 296 298 296 292 289 286 285 281 283 285 284 290 295 295 297 292 292 295 306 318 321 323 325 326 327 330 332 333 334 335 336 337
308 308 307 312 311 311 313 315 314 313 312 312 301 296 294 286 287 299 291 291 293 299 299 296 297 297 296 290 294 296 289 296 295 295 296 293 293 292 295 297 297 294 292 291 287 288 283 286 292 295 292 300 299 298 298 296 296 295 297 296 291 287 286 283 284 282 284 286 291 297 293 288 290 293 300 319 322 323 325 327 327 330 334 335 335 335 336 337
307 307 309 310 312 314 314 315 315 316 311 304 296 292 288 286 290 288 289 292 295 298 296 299 295 295 292 294 296 296 295 290 296 295 294 294 290 292 292 292 296 296 294 287 292 293 289 288 294 298 298 299 297 299 300 301 299 298 299 298 293 292 293 287 287 287 289 288 287 291 291 292 294 300 304 305 312 318 325 326 326 328 332 334 333 333 334 336
307 312 315 313 317 319 317 317 316 314 308 298 294 289 285 290 287 292 291 298 297 294 295 295 294 290 290 289 296 295 297 292 294 292 292 293 293 292 294 294 294 295 290 287 291 284 288 284 295 297 301 298 297 299 298 301 293 296 298 293 294 297 297 293 296 296 296 291 286 294 295 296 299 303 304 304 302 309 317 323 324 325 330 332 332 332 333 335
308 312 312 316 318 320 320 319 318 312 305 297 292 288 295 294 295 295 300 295 295 296 293 286 289 288 287 287 289 293 293 294 293 289 286 294 290 293 294 294 297 296 295 291 289 292 285 286 294 295 294 298 300 299 299 301 300 297 294 293 300 301 299 292 286 288 288 284 286 294 290 292 294 292 301 300 301 302 315 320 323 325 329 330 331 332 333 334
306 309 314 316 319 317 320 318 315 307 301 297 293 298 295 292 298 296 298 297 297 297 291 288 290 293 288 287 287 291 293 288 289 291 289 293 287 296 293 293 297 296 296 296 289 291 291 284 289 295 295 297 300 300 298 300 301 296 295 303 296 288 291 291 291 284 285 285 286 290 293 295 293 292 299 299 300 302 303 316 321 323 327 329 330 331 332 334
306 308 308 313 319 314 312 316 307 304 298 293 292 293 296 295 299 297 298 297 299 295 289 292 290 292 291 288 290 292 293 287 291 288 286 289 286 293 293 294 294 297 298 298 293 292 292 284 286 294 294 296 296 296 286 291 298 300 301 298 299 296 292 291 290 289 288 284 288 286 291 290 299 296 301 300 302 307 313 312 319 323 327 329 330 331 331 332
309 305 302 311 313 312 313 311 304 299 295 291 293 292 298 295 297 299 299 298 294 292 292 292 293 289 291 291 292 288 292 292 290 290 290 291 289 295 293 297 293 295 297 299 295 296 290 292 282 289 296 294 288 291 289 291 289 292 293 293 295 295 297 295 295 291 288 285 284 285 284 289 299 306 310 313 315 318 320 315 316 323 327 329 330 330 331 332
309 304 304 312 311 312 309 304 297 296 296 295 296 296 297 295 297 298 300 300 297 299 294 293 291 289 290 289 289 292 290 291 291 289 290 290 290 285 295 295 296 295 296 296 294 294 289 288 284 288 289 287 289 296 295 295 294 292 291 291 293 292 290 286 286 295 296 288 284 285 284 292 301 308 308 315 318 321 322 322 316 321 326 328 329 330 331 332
305 299 298 311 312 310 303 296 296 299 294 291 291 296 297 303 297 296 298 299 298 294 299 295 294 292 291 291 291 290 290 289 290 290 291 289 293 292 294 297 297 297 293 290 291 295 295 292 288 284 287 289 293 296 299 298 297 297 296 293 295 293 292 289 283 287 292 292 296 291 287 292 304 306 307 312 319 322 324 325 323 323 326 328 329 331 331 332
302 301 312 317 313 308 298 292 301 299 293 296 300 298 299 297 296 297 296 297 295 297 295 294 293 292 293 292 292 291 292 289 291 289 291 292 293 295 296 297 297 298 296 293 295 294 303 288 285 286 289 293 295 297 299 299 298 294 295 295 293 290 291 290 290 292 291 291 288 288 289 290 303 306 307 309 319 323 325 325 325 325 326 328 329 330 330 331
303 304 308 315 313 305 298 291 290 292 294 297 297 295 298 296 296 295 295 296 295 294 293 293 294 295 293 295 294 291 293 286 292 292 289 293 291 298 297 297 298 297 296 293 291 295 287 289 285 281 281 285 288 291 293 296 295 291 290 293 293 293 294 294 295 295 290 292 292 289 285 289 300 306 306 308 319 321 323 325 325 324 326 327 328 330 331 331
302 307 308 309 311 303 295 296 293 291 295 296 295 294 295 295 296 296 295 294 296 295 294 293 295 295 294 295 294 294 295 292 288 293 293 293 293 299 297 297 298 297 302 303 304 298 289 290 284 278 277 276 277 278 282 284 288 290 293 292 293 292 291 291 287 289 283 292 292 289 289 295 299 303 304 306 317 319 322 323 324 325 325 328 326 330 333 333
301 293 299 300 303 300 298 301 297 294 292 295 294 295 295 293 296 297 297 296 297 297 297 296 297 297 294 294 292 292 291 295 291 291 291 291 294 296 296 297 297 298 303 306 305 297 290 291 287 284 281 281 282 286 290 293 289 286 289 290 291 292 293 292 292 289 285 289 288 290 293 292 295 299 301 303 315 318 319 320 321 322 323 326 330 332 332 333
304 295 296 291 298 297 295 297 296 296 292 296 288 294 292 293 294 295 298 293 297 296 297 296 295 293 292 292 291 291 292 292 293 292 291 292 296 296 299 296 297 302 305 302 303 295 289 284 288 288 287 287 289 288 290 291 287 288 288 288 290 291 291 290 287 285 292 287 282 292 294 291 293 297 301 306 313 317 319 320 322 321 321 321 323 327 334 329
294 299 301 302 292 289 290 292 297 297 299 297 292 296 293 292 293 291 296 297 298 298 293 295 295 295 294 293 293 288 291 291 290 289 293 293 293 294 293 297 295 301 300 295 300 293 288 285 289 290 288 289 290 290 291 290 290 289 289 289 289 290 290 288 288 290 291 287 285 291 293 292 295 299 302 314 315 316 316 319 323 322 321 320 320 321 322 324
302 302 302 306 293 297 297 299 300 297 296 299 295 295 292 292 291 293 293 294 295 294 295 288 292 294 294 295 292 289 290 285 287 291 291 290 291 291 289 292 296 296 295 293 294 296 289 284 290 290 288 289 290 290 292 290 290 290 290 290 290 290 290 290 290 291 290 289 291 292 294 296 297 301 309 316 317 315 316 318 321 322 319 319 318 318 319 320
297 296 296 302 301 297 298 298 297 295 292 298 291 293 294 293 291 294 296 294 290 292 297 292 293 294 295 295 293 290 293 293 292 289 294 291 289 291 290 292 289 294 294 293 296 294 288 287 294 290 286 287 289 292 291 291 290 288 290 290 290 289 290 290 290 291 295 292 293 293 292 293 298 306 312 316 315 315 315 315 316 321 321 319 317 317 318 319
304 305 304 297 293 297 300 297 294 292 290 291 290 294 296 294 293 295 295 299 294 292 295 292 296 294 296 296 295 294 297 295 295 295 295 294 288 293 289 290 293 289 294 293 293 296 292 285 291 288 283 283 288 289 290 290 290 288 288 289 289 288 287 289 289 292 290 289 290 290 289 291 298 306 314 314 312 311 310 312 313 316 322 320 317 317 317 317
306 308 307 298 292 300 294 296 294 291 288 293 298 295 296 295 298 296 292 299 298 300 299 297 297 292 293 293 293 296 299 297 298 297 295 294 295 295 294 294 294 292 290 291 294 289 290 287 285 284 282 281 288 289 288 289 287 284 285 287 289 289 291 291 293 296 295 299 290 288 291 301 304 309 310 310 310 309 309 310 311 313 316 320 319 317 316 317
Wind_Speed
20 21 21 21 21 21 20 20 20 19 20 19 18 19 18 18 17 16 14 14 13 13 13 12 11 10 8 9 9 8 4 2 3 2 4 11 9 14 6 11 8 13 10 2 2 5 3 3 5 4 3 3 3 6 8 9 5 3 2 2 2 3 1 3 2 2 5 6 5 5 4 5 6 3 3 5 3 4 4 4 4 7 10 10 16 18 19 18
21 21 22 22 21 21 21 21 20 20 20 19 19 18 18 18 18 17 15 14 13 12 12 11 11 10 8 7 7 6 3 2 4 6 16 5 11 12 11 6 10 13 11 2 7 6 6 5 6 4 4 3 3 5 5 3 7 5 1 1 5 3 5 2 3 8 9 6 7 6 5 5 3 5 2 3 4 7 4 2 3 12 13 17 19 20 20 19
22 22 22 23 22 22 21 20 20 20 20 19 19 19 18 18 18 17 16 15 14 12 11 9 9 9 7 6 5 3 3 3 4 6 12 19 12 12 12 6 8 15 12 5 5 6 7 9 6 6 4 3 4 6 5 4 7 7 4 5 6 5 3 3 7 6 10 12 9 6 4 5 5 2 3 1 7 7 9 8 6 12 18 21 21 21 20 18
22 22 23 22 23 23 22 21 22 21 20 19 19 17 18 18 18 16 16 16 14 12 9 8 7 7 6 5 3 1 2 3 0 3 4 9 17 15 13 10 11 13 6 1 3 4 3 2 6 7 4 6 5 6 6 7 6 5 6 5 5 6 3 2 8 9 14 13 11 8 4 2 6 4 5 6 9 7 6 8 12 22 22 22 23 22 20 19
23 23 23 23 23 24 23 23 23 22 21 21 19 18 18 18 17 17 16 15 14 12 9 7 7 5 4 3 1 0 1 2 1 2 1 10 13 17 14 12 11 7 8 3 1 2 1 1 1 6 5 5 6 4 9 9 7 3 13 13 3 4 3 7 9 11 12 13 13 11 11 6 4 3 6 8 9 9 10 13 12 20 22 24 25 22 19 19
23 23 23 23 23 23 23 24 23 23 22 22 21 20 18 17 16 16 16 15 13 11 9 6 5 4 3 2 0 1 0 2 2 2 6 7 14 16 15 12 12 7 5 3 4 2 3 3 2 2 5 4 5 7 4 9 7 8 7 7 8 7 5 7 11 8 13 11 13 12 8 8 7 5 7 10 6 3 2 5 14 19 19 20 21 21 21 19
23 24 24 24 23 23 23 24 23 22 23 22 20 19 19 18 17 15 15 13 13 10 7 5 4 4 1 2 1 1 1 5 3 7 10 9 10 13 14 13 11 5 5 4 3 4 6 3 5 5 5 7 10 9 10 4 6 9 8 4 11 13 9 9 10 12 11 13 13 9 14 9 9 8 9 9 12 2 3 9 19 17 19 20 20 19 21 18
24 24 24 25 23 23 24 23 23 22 23 21 21 20 21 18 17 15 14 13 12 10 7 5 3 2 2 2 1 0 1 6 10 5 9 10 8 11 12 7 8 6 6 8 8 8 4 7 8 3 6 7 2 7 5 7 9 9 10 10 4 9 6 10 9 10 11 9 8 12 12 9 11 5 7 8 7 9 8 5 18 17 20 18 19 19 18 18
24 24 24 23 23 24 26 25 24 23 22 21 20 21 20 19 17 14 13 13 12 11 6 4 3 2 1 0 1 2 3 7 4 7 11 10 10 10 11 7 6 9 6 5 8 6 4 6 7 7 5 8 9 9 5 4 7 6 11 9 5 6 12 10 10 11 11 7 10 11 10 9 6 7 7 7 9 12 5 4 18 18 19 19 17 19 16 19
25 25 24 26 26 26 26 25 24 24 22 22 21 21 19 19 17 15 13 11 12 10 7 2 1 2 1 0 1 1 2 5 5 9 10 11 11 10 9 7 11 9 7 8 4 7 10 6 10 6 8 11 7 6 4 5 6 5 4 2 5 11 14 11 13 10 10 8 12 10 10 7 6 5 2 6 11 10 7 5 12 17 19 18 15 17 15 19
26 26 25 25 24 26 27 25 24 24 24 23 22 21 19 19 17 16 13 12 12 10 6 2 4 3 0 1 2 3 5 4 5 9 12 13 13 11 11 9 11 9 8 6 9 12 13 10 4 4 4 5 1 5 5 3 4 7 6 6 1 16 13 12 9 11 9 7 9 7 7 5 4 1 4 10 12 12 11 9 8 8 17 16 15 17 13 14
26 26 27 26 26 27 25 24 26 24 25 24 23 21 20 19 17 16 14 12 11 9 4 4 6 1 1 0 2 7 3 1 2 7 10 12 9 12 11 9 11 10 10 9 10 12 11 7 2 3 5 6 4 5 6 3 4 6 5 3 1 10 8 13 13 12 11 7 9 9 8 1 5 6 6 10 13 13 12 12 11 11 15 16 13 15 14 14
27 27 26 26 27 28 28 26 26 26 24 24 21 20 21 21 18 14 13 10 7 7 5 5 5 1 1 0 9 10 7 7 3 7 10 9 4 6 10 11 13 10 12 7 10 10 8 9 6 6 8 6 6 5 6 4 4 6 4 2 1 8 7 14 11 13 10 9 15 11 3 6 8 9 6 11 18 16 14 13 13 11 16 16 12 14 14 14
28 26 27 27 29 27 26 26 26 25 24 24 23 21 21 22 18 12 12 11 9 8 5 7 2 1 1 5 5 2 6 6 8 3 2 5 6 4 6 8 11 8 8 7 6 3 6 3 5 9 6 8 6 4 9 4 2 2 6 2 3 7 5 12 10 12 8 9 17 9 5 7 8 10 8 10 15 17 19 16 14 14 15 16 11 14 14 15
26 26 27 29 27 27 25 27 24 24 24 23 24 24 23 23 18 12 10 8 8 7 7 5 2 2 0 7 6 7 10 4 3 2 4 5 3 3 6 7 9 10 9 9 3 2 3 5 6 5 6 3 2 3 5 3 2 2 3 3 3 3 3 13 10 16 9 6 14 6 1 10 12 12 12 12 13 13 20 20 21 16 14 16 11 14 14 15
22 25 28 29 27 27 26 25 24 24 24 24 26 29 26 19 15 11 8 6 5 9 6 2 2 1 1 6 4 9 4 1 2 8 6 6 6 4 7 7 9 8 6 5 5 4 4 4 6 4 7 3 2 1 3 4 5 1 2 4 3 0 5 2 13 16 14 14 12 12 3 2 3 8 12 14 16 13 15 13 15 14 16 16 12 12 11 14
23 24 27 28 29 28 27 24 25 25 25 25 27 27 24 14 8 5 4 7 5 4 3 1 3 2 1 2 5 4 1 3 3 2 2 3 3 2 1 1 4 7 6 3 5 3 3 3 2 3 1 1 1 2 1 3 4 4 0 4 4 4 2 4 3 16 13 17 11 15 4 8 6 13 12 14 16 14 15 12 15 14 14 14 13 12 12 14
24 25 26 26 28 27 25 24 24 25 25 26 24 22 19 20 3 14 8 4 3 4 2 3 0 1 5 3 1 1 1 1 1 2 3 3 4 3 2 2 2 5 6 3 2 4 2 2 1 2 1 3 1 1 5 6 6 3 3 4 5 2 5 8 2 9 13 16 16 15 7 5 8 14 15 15 14 16 17 13 16 15 14 14 14 13 14 14
27 27 25 27 26 27 26 23 24 23 24 26 21 20 12 1 2 1 5 3 2 1 1 1 2 1 3 2 5 3 2 4 2 1 1 0 1 2 2 2 3 6 3 3 2 5 0 1 1 0 3 6 8 5 6 3 4 7 5 2 3 4 6 7 7 4 20 14 12 15 10 7 12 15 15 14 14 14 15 12 13 13 13 14 14 14 14 15
29 28 26 25 26 26 27 24 23 22 20 18 13 9 3 6 5 1 1 2 2 4 6 3 4 5 9 10 3 1 2 1 1 3 2 1 3 1 0 1 2 4 5 5 2 6 3 5 5 7 7 6 5 5 6 6 7 7 4 5 6 6 9 7 6 5 21 15 16 17 9 13 15 17 17 17 15 13 14 15 14 14 14 15 14 13 17 17
26 24 24 25 26 26 26 27 24 22 18 7 5 2 3 3 3 4 7 8 6 6 6 9 7 7 8 7 4 1 3 2 1 2 3 2 4 4 1 1 2 4 5 7 6 2 5 4 7 7 7 6 6 5 6 8 9 8 6 6 9 8 10 10 9 2 14 13 14 15 14 15 17 16 18 17 16 16 16 16 17 15 16 16 17 15 18 16
25 24 24 23 25 26 27 27 26 23 15 2 0 3 4 1 2 4 1 6 8 5 7 10 6 7 6 12 7 3 4 0 4 4 1 2 4 4 2 2 2 5 4 3 3 2 5 8 7 8 7 6 7 6 6 10 10 8 7 8 7 10 8 13 11 7 5 12 10 16 15 14 18 18 17 19 19 16 15 18 18 17 17 15 16 16 15 15
25 23 24 24 24 26 27 27 25 23 2 3 5 4 2 4 1 2 2 3 7 7 6 5 3 5 5 3 2 4 1 1 2 3 3 2 4 3 4 3 6 4 4 5 5 4 4 6 10 10 9 9 7 9 9 7 8 8 7 5 9 10 5 7 2 4 6 2 6 16 16 10 8 11 17 18 17 14 15 16 14 15 18 18 19 17 15 17
26 27 24 23 24 25 29 26 25 5 4 7 6 3 6 4 1 4 2 1 4 7 5 4 2 4 4 1 2 2 3 1 1 2 2 2 4 3 2 5 5 3 6 7 8 6 6 7 12 10 8 9 10 9 9 7 7 7 8 8 9 10 9 8 8 5 5 7 12 10 3 2 6 10 11 11 11 11 13 12 11 10 13 16 16 16 16 18
27 26 25 23 23 25 28 25 4 4 9 6 1 5 2 2 3 3 2 3 1 6 3 2 4 1 1 3 1 0 0 1 4 3 2 3 1 2 1 2 3 5 5 8 7 7 8 12 6 7 7 7 8 8 10 8 8 7 8 11 11 10 12 10 7 5 6 7 4 17 3 4 5 11 14 10 10 12 12 14 13 13 11 11 15 17 15 16
26 26 23 20 23 24 28 4 2 7 10 1 2 8 7 4 4 3 3 2 3 3 1 2 2 2 0 2 1 2 4 1 3 2 3 4 3 2 0 1 0 2 6 5 7 4 8 10 8 9 11 11 9 9 9 8 8 7 6 8 12 12 11 9 9 1 3 3 1 7 10 3 1 8 10 10 13 14 11 14 14 14 13 13 14 15 15 16
24 24 22 20 18 19 11 2 4 9 2 2 5 8 7 7 4 4 2 2 2 1 3 1 1 0 1 0 1 2 1 2 4 2 2 2 2 0 1 3 2 1 2 2 0 3 6 12 10 7 8 11 9 9 9 9 7 6 8 5 4 3 4 6 6 4 5 2 1 4 8 6 4 10 10 12 13 13 12 13 15 15 16 16 15 17 16 16
24 22 22 20 18 10 5 6 9 5 4 5 6 8 9 5 5 3 1 2 2 1 0 1 0 2 1 0 3 2 5 3 1 2 1 1 5 3 1 3 2 3 2 2 1 7 1 3 3 4 4 6 9 10 11 8 6 5 8 9 9 8 6 4 2 5 4 2 5 1 2 5 4 10 13 9 9 11 15 17 17 17 17 18 18 18 18 18
24 22 21 19 18 22 2 5 2 5 4 4 7 8 6 5 2 2 2 3 1 0 2 0 4 0 1 1 1 1 1 2 2 2 0 3 1 4 1 4 2 2 3 3 3 4 2 1 4 4 3 4 6 11 14 9 7 8 11 5 2 2 3 1 1 2 4 1 6 2 3 3 4 2 8 8 12 16 17 20 21 20 20 19 18 18 18 16
24 24 20 18 13 3 2 2 6 9 7 8 9 8 6 3 2 2 2 2 1 0 2 1 1 1 1 1 0 2 3 1 3 0 0 1 1 3 1 1 0 1 2 2 3 6 5 6 7 2 2 4 3 6 11 8 11 2 5 8 5 1 1 3 3 2 3 2 6 3 3 5 1 4 12 11 15 18 18 13 13 14 15 16 16 16 17 17
25 23 18 12 5 3 4 4 9 9 8 5 7 6 2 2 2 1 2 0 1 1 0 1 1 1 2 2 1 1 2 1 1 1 0 2 4 4 3 3 5 2 2 2 4 6 3 0 1 2 3 4 3 4 2 7 8 5 0 4 3 6 1 3 2 4 2 4 5 3 0 4 2 2 7 17 20 24 20 18 18 18 19 18 16 16 17 17
25 24 20 9 7 2 3 4 3 2 5 7 7 3 2 2 2 2 2 2 1 2 1 1 1 2 3 2 3 3 2 1 1 2 1 0 2 5 6 4 3 1 3 3 3 7 4 1 1 5 2 1 3 4 7 3 2 4 4 4 3 2 1 3 2 3 2 4 4 1 4 2 2 7 12 17 17 15 11 12 16 19 20 18 17 17 16 16
25 24 22 7 7 4 8 12 8 7 8 7 4 2 3 3 2 3 2 7 2 1 2 1 1 1 1 5 2 1 0 3 2 1 2 2 8 7 9 8 5 1 1 1 2 8 6 4 4 4 1 7 7 1 3 4 1 1 2 3 2 1 0 3 2 1 3 7 7 3 4 2 4 6 8 15 16 15 17 15 15 18 20 21 19 17 16 16
24 22 9 4 8 9 6 4 6 2 5 5 3 5 2 5 2 2 4 3 2 4 4 5 9 4 3 2 2 1 5 3 1 2 3 5 7 6 8 13 14 8 4 3 6 2 3 3 3 7 4 8 6 7 3 3 1 3 2 7 6 4 3 2 2 3 5 7 6 4 2 3 2 3 8 18 18 16 15 17 15 16 17 19 19 17 16 15
25 16 7 4 5 9 13 10 7 1 2 4 5 2 4 2 1 4 4 5 3 6 9 11 2 1 3 2 0 3 1 1 2 5 10 11 6 7 7 8 11 6 1 4 2 1 2 4 5 5 6 3 8 9 7 4 2 3 1 6 4 3 4 1 4 3 1 2 5 3 2 4 4 5 4 9 13 15 16 18 17 15 15 14 11 13 15 17
14 6 2 3 2 5 8 7 3 2 2 4 5 5 7 1 1 3 1 3 2 5 8 8 9 3 1 2 1 3 6 4 1 5 6 11 10 8 6 5 8 10 5 4 1 3 3 4 2 10 2 6 11 11 7 2 1 4 2 3 6 7 3 1 3 2 2 1 5 2 5 7 6 8 8 8 5 14 16 17 16 17 16 16 16 17 17 16
9 8 5 3 3 5 5 5 5 5 3 3 3 5 1 1 3 2 4 5 4 5 4 7 6 3 5 2 3 5 2 3 3 3 2 2 7 11 6 5 10 9 7 3 2 1 1 9 7 3 8 6 16 10 3 11 6 1 0 4 4 1 5 4 3 2 1 3 4 1 3 3 2 6 6 5 10 6 13 15 18 19 17 18 18 18 19 19
7 5 5 5 6 3 4 6 7 3 2 3 3 8 2 3 3 3 2 6 5 7 5 3 1 6 7 5 7 7 8 5 4 3 2 5 4 5 6 3 8 9 11 5 3 4 0 6 3 4 4 9 15 9 9 11 10 9 8 5 3 1 2 3 2 1 0 0 1 2 2 1 5 6 7 6 8 13 4 11 12 12 15 19 19 20 20 20
2 1 4 3 2 4 3 8 4 4 2 3 3 3 2 4 4 4 3 4 1 2 5 3 1 5 5 7 3 5 11 5 5 5 3 3 5 9 5 5 5 10 10 9 7 5 4 2 7 2 10 8 3 9 5 11 16 14 10 12 3 1 2 1 4 2 4 2 1 3 2 3 2 3 9 10 10 11 15 4 14 13 17 18 17 18 18 17
4 2 3 3 1 3 5 4 3 3 2 3 0 2 2 4 6 11 11 10 3 3 2 2 6 3 8 5 8 4 5 9 8 6 6 5 5 5 12 9 6 8 7 11 8 6 3 3 3 6 7 4 5 4 5 7 9 11 11 11 11 3 3 3 1 3 3 3 3 1 2 2 6 7 12 14 14 16 14 12 10 15 15 18 19 18 17 18
3 1 4 3 0 3 6 5 2 1 1 1 3 3 8 4 5 9 12 15 5 3 7 8 5 6 3 7 9 8 3 8 8 9 7 8 7 2 9 8 7 9 3 9 11 9 3 4 4 8 11 4 5 4 6 7 4 3 3 7 7 10 10 4 4 3 1 4 3 3 5 2 5 6 10 8 11 14 17 19 10 15 16 18 17 17 18 18
2 2 2 5 6 1 3 4 2 1 2 6 5 4 3 5 7 10 9 9 9 5 5 3 6 5 5 6 2 5 2 8 8 9 8 8 8 6 6 11 7 4 6 3 1 4 0 0 3 6 3 11 7 5 7 3 3 11 10 10 10 4 3 3 0 4 5 1 2 4 2 3 0 7 11 10 11 16 18 17 18 7 16 18 17 18 18 19
4 3 8 10 4 1 3 5 4 4 3 4 7 10 6 6 4 6 7 9 5 6 5 7 6 3 9 5 7 7 6 6 6 7 6 9 11 9 6 10 8 7 2 6 2 6 5 4 9 9 8 8 4 9 7 13 6 8 10 8 11 10 8 4 5 4 1 8 2 1 3 4 5 11 13 13 8 13 15 19 18 15 8 8 16 17 18 17
2 3 7 8 5 7 9 4 4 7 4 7 10 8 6 4 6 6 6 7 4 4 4 4 4 8 5 8 9 9 7 3 8 7 5 4 5 7 12 10 9 6 5 1 1 7 3 2 3 5 8 13 6 5 8 5 12 6 6 8 8 9 11 10 2 2 3 0 2 1 6 2 10 11 12 13 13 14 18 19 20 21 16 10 3 9 13 15
3 3 4 7 9 9 6 2 4 4 4 3 5 6 2 3 3 5 5 9 5 5 3 6 7 5 6 5 10 8 10 7 2 5 3 5 4 4 8 10 9 6 7 8 9 1 6 0 4 3 2 5 7 5 6 10 11 9 3 9 7 13 13 11 6 5 2 2 5 1 4 4 10 11 13 13 10 14 14 17 21 18 19 19 7 2 1 3
4 3 5 6 6 7 5 3 4 4 3 3 6 5 5 2 3 9 6 7 8 8 8 3 5 8 9 9 9 9 8 6 6 1 3 2 2 3 5 8 7 6 9 13 10 3 1 1 4 3 3 6 5 4 6 7 7 7 9 7 7 10 8 5 2 1 2 4 5 5 2 10 14 16 14 12 10 10 16 18 19 20 22 22 18 14 14 14
0 3 3 5 6 8 5 6 6 7 4 2 4 4 7 10 5 4 10 2 7 5 5 10 7 7 5 7 3 4 5 6 6 5 4 2 0 1 3 7 7 12 15 8 10 3 2 4 1 3 4 6 7 8 8 9 11 8 8 7 7 6 7 7 5 5 2 6 7 4 3 9 11 12 11 10 8 10 13 12 13 17 20 19 17 17 22 21
4 2 1 1 2 4 6 6 8 9 9 8 6 6 9 10 11 7 6 7 3 9 3 4 8 8 8 4 2 4 4 3 6 4 5 3 1 3 3 6 4 9 9 4 5 3 2 1 1 3 4 5 6 9 10 9 8 9 7 6 5 4 7 8 7 6 5 3 7 8 7 5 8 9 9 9 9 8 12 12 10 14 16 17 19 21 21 19
2 1 1 4 3 3 4 5 10 9 12 7 3 8 9 10 8 5 3 4 4 4 5 4 4 6 7 7 5 4 5 5 6 4 4 7 8 7 6 4 4 7 6 5 4 1 2 1 2 5 4 5 8 8 10 11 12 14 10 5 3 6 7 7 9 8 7 7 9 9 4 3 7 7 10 10 9 8 8 9 11 13 13 14 17 19 20 19
5 3 5 5 1 3 5 5 4 9 8 8 4 6 4 7 9 8 4 4 3 4 3 6 4 6 5 6 5 4 2 3 1 3 3 4 7 3 2 1 2 3 2 1 1 2 3 2 7 4 5 3 5 8 9 11 12 15 15 10 6 5 7 8 9 8 7 6 3 6 5 4 3 4 7 8 6 7 13 14 11 12 10 14 14 17 16 17
2 1 1 1 5 4 3 5 5 5 5 5 5 3 5 7 4 3 1 2 3 1 3 3 3 4 4 5 5 5 3 4 3 2 3 1 2 1 2 3 3 4 2 1 0 0 2 2 1 1 4 6 3 7 10 12 14 14 14 10 5 3 3 3 4 5 6 10 11 11 7 3 4 6 5 6 8 11 10 10 10 10 9 11 13 14 15 16
1 1 0 2 3 4 3 2 3 5 4 2 2 5 3 3 2 3 3 4 5 1 1 3 2 5 3 7 4 0 0 1 1 3 3 3 2 5 3 3 2 1 1 0 0 0 1 1 1 1 3 4 2 5 9 10 10 12 10 3 5 5 3 4 5 6 4 6 4 5 3 4 5 2 4 4 7 8 11 10 8 10 12 13 12 13 14 14
Wind_Direction
354 352 351 350 348 347 345 346 344 341 340 336 334 332 328 327 327 328 327 324 322 319 316 312 310 309 310 308 311 313 339 314 316 229 214 239 188 222 192 210 185 202 212 149 173 127 170 199 224 206 202 176 217 236 239 233 168 137 216 171 225 213 188 237 219 136 110 113 132 122 136 141 123 174 145 127 131 64 81 50 32 260 139 141 133 140 146 149
352 351 349 348 346 344 343 343 342 341 340 336 334 330 327 326 328 327 327 327 324 321 320 313 311 306 307 309 310 316 338 259 254 236 228 214 197 213 223 224 206 184 178 190 173 176 155 196 212 185 189 205 204 247 163 220 159 164 201 156 237 194 239 182 119 118 123 140 148 137 130 121 95 144 181 154 140 118 123 106 164 171 125 127 141 147 152 156
350 350 348 347 345 343 340 338 338 340 339 336 333 330 326 325 325 327 327 328 326 324 325 316 303 307 309 308 309 319 333 296 244 254 262 222 212 206 212 228 159 162 170 168 195 174 181 181 188 179 195 247 222 237 214 236 175 201 175 219 245 195 240 129 136 127 110 141 128 126 112 113 130 133 141 139 139 148 165 167 232 159 144 146 148 156 157 159
348 348 347 345 343 342 338 334 337 339 337 334 333 326 326 323 323 325 327 329 327 325 325 310 299 307 311 307 291 297 290 282 347 253 236 169 194 202 206 201 168 172 179 216 155 176 235 226 193 185 180 223 254 245 242 221 205 177 210 216 240 177 195 187 123 125 131 132 128 126 124 94 152 156 174 152 145 179 208 206 195 153 153 151 154 157 161 158
346 346 345 344 342 341 337 335 335 336 334 332 328 325 326 324 319 324 326 328 326 327 325 308 308 310 305 284 240 198 268 39 222 234 210 164 179 197 192 186 180 170 177 156 137 274 322 325 324 209 208 219 239 250 240 235 229 162 211 223 206 166 181 174 133 139 136 137 131 137 144 194 133 149 206 172 175 183 199 195 177 152 155 153 156 158 160 160
345 344 343 342 341 339 336 334 333 333 333 333 330 327 320 319 320 322 324 324 325 322 330 317 313 315 314 125 242 223 72 96 282 249 172 175 180 192 184 177 180 166 157 139 160 153 180 237 173 210 207 226 224 213 228 223 215 247 257 234 213 193 174 157 141 145 132 140 137 155 153 129 171 182 193 187 240 261 339 182 163 156 160 154 153 157 160 160
343 342 341 341 340 336 334 334 332 330 332 330 327 322 320 323 319 322 322 322 325 317 329 325 317 311 348 150 215 306 89 272 280 246 173 166 174 166 160 162 169 152 154 157 181 174 194 196 192 220 231 228 244 237 253 264 216 238 262 230 206 198 184 152 153 154 146 147 155 149 139 152 176 179 186 194 202 257 39 301 167 156 156 157 157 162 163 154
342 340 339 338 336 335 334 333 331 329 331 328 325 322 322 319 318 317 321 322 321 316 324 324 325 351 155 199 116 326 93 252 238 229 156 119 115 135 141 145 163 158 158 188 172 195 154 195 214 212 252 223 196 204 240 237 246 243 248 249 235 185 133 157 149 159 146 142 138 140 150 168 178 159 151 219 161 136 195 313 164 155 157 160 159 159 160 149
341 339 337 335 333 335 334 332 330 328 329 327 323 321 321 316 314 314 317 319 319 312 308 311 335 88 203 181 169 345 243 235 221 135 138 140 138 139 137 151 179 164 181 180 196 186 162 220 226 214 224 228 240 256 251 251 275 233 241 248 191 144 157 155 156 157 143 138 150 149 158 161 164 125 184 211 144 163 143 242 163 155 157 163 163 160 158 152
340 338 335 335 334 333 332 331 329 328 328 327 323 321 317 315 310 309 315 316 313 309 296 281 246 154 172 359 219 81 238 211 146 142 142 135 136 144 169 161 166 170 169 199 181 186 199 201 201 199 242 278 266 256 270 234 249 278 302 247 205 151 162 172 151 155 151 149 163 156 154 157 159 187 247 188 155 136 140 120 153 158 163 164 164 163 157 155
339 337 335 333 332 332 332 330 327 328 327 327 324 320 314 311 307 304 307 306 301 298 281 235 146 153 242 237 115 197 249 126 164 145 147 145 143 150 188 165 174 171 182 176 197 201 214 222 238 336 312 241 282 266 228 219 297 285 271 293 249 169 163 151 148 153 143 150 182 145 139 128 118 3 229 136 157 141 134 128 121 190 164 169 163 162 160 158
338 336 334 333 331 333 330 328 328 327 327 325 323 317 311 306 302 302 303 298 294 282 249 174 156 195 255 78 193 225 261 132 144 149 155 151 158 179 180 167 173 180 179 180 207 213 220 235 253 255 256 351 273 311 274 302 292 323 295 288 57 146 128 155 162 171 164 148 178 127 85 78 160 209 218 146 152 143 139 142 155 200 174 171 163 158 164 165
337 336 334 331 331 332 330 328 328 326 326 323 318 312 310 305 299 295 296 289 264 249 197 178 164 205 115 35 230 241 280 282 313 146 162 180 175 167 168 174 181 182 189 189 205 215 216 221 224 235 244 259 267 264 293 320 321 327 334 223 55 144 158 187 164 167 169 166 162 144 87 246 217 217 194 154 153 152 135 147 166 202 176 171 165 161 165 168
336 335 333 331 331 330 328 327 326 325 324 322 318 312 308 303 296 298 282 263 244 239 219 183 189 190 121 244 264 237 246 248 251 262 202 192 139 197 186 181 177 194 192 208 243 212 233 252 246 249 267 258 269 315 306 324 332 350 290 320 208 126 211 180 176 176 175 171 172 171 129 235 225 215 200 169 169 152 152 160 174 201 170 172 169 162 167 172
334 334 333 331 330 327 327 327 324 323 323 322 318 312 306 301 298 294 273 256 230 214 180 150 196 123 56 267 262 272 254 203 196 230 210 196 144 193 206 176 178 192 201 208 224 247 242 263 269 259 255 211 286 2 321 331 334 301 28 311 319 173 282 185 176 175 159 159 191 176 93 196 204 204 186 171 174 163 162 167 172 179 163 171 171 165 168 174
333 333 333 330 327 327 324 326 326 323 325 323 321 313 303 293 294 283 243 207 191 169 156 139 177 209 343 290 278 321 328 119 253 209 218 171 163 184 210 177 179 196 192 219 232 250 258 274 269 248 252 275 302 332 327 1 332 340 157 272 295 223 230 139 187 187 174 153 200 206 202 99 210 200 176 168 175 168 167 166 166 169 167 172 174 166 166 170
333 333 332 329 328 326 325 325 326 325 324 323 322 310 301 292 288 243 166 147 146 137 174 116 124 188 26 252 296 304 243 228 241 90 174 215 152 139 95 162 159 184 200 213 214 237 248 241 267 253 144 168 173 185 10 315 297 309 232 201 218 190 239 253 165 181 177 154 191 221 220 200 162 176 176 175 174 165 172 168 169 170 171 173 177 166 167 172
333 333 331 328 326 324 322 325 327 326 324 323 320 300 296 308 37 102 78 98 136 163 218 273 260 350 288 309 308 228 230 131 111 219 185 224 173 145 135 181 178 170 167 214 211 216 186 234 200 217 209 210 244 158 155 221 199 230 271 272 301 296 232 238 184 184 173 177 178 202 224 203 162 168 175 178 176 168 176 171 172 172 172 173 176 173 170 176
333 333 331 329 324 323 322 323 327 327 325 321 306 286 275 183 164 267 113 140 109 29 22 250 142 119 146 245 265 282 290 202 215 104 312 188 167 150 142 194 171 136 178 150 289 203 208 246 334 66 230 208 220 189 169 219 196 222 243 236 261 284 278 249 240 162 166 185 191 187 198 178 166 171 176 176 178 173 175 167 168 174 174 174 174 175 174 179
333 332 329 328 325 323 322 324 325 326 332 332 350 353 13 12 10 334 339 106 174 217 253 250 216 294 306 289 254 260 279 134 83 242 202 243 122 129 276 107 111 144 124 180 205 209 141 197 198 213 219 218 232 204 178 231 272 282 307 299 282 285 277 273 263 177 176 176 192 193 182 172 174 176 178 177 178 177 174 173 174 176 176 178 178 171 178 180
331 330 329 327 327 323 322 325 325 323 326 295 291 358 48 352 12 326 327 281 234 234 244 259 233 241 263 293 283 28 35 318 159 249 198 160 106 107 284 86 84 179 175 174 171 226 163 196 228 225 225 203 222 220 211 241 253 258 271 279 284 268 271 272 270 251 173 181 201 192 178 179 177 177 179 178 179 186 179 178 176 177 175 178 179 173 176 180
331 329 329 327 325 325 322 323 324 321 331 172 129 29 276 239 184 205 301 319 310 241 226 258 256 265 256 244 239 146 100 282 317 285 285 98 142 134 260 105 148 196 212 188 192 117 190 209 233 227 221 226 231 228 221 223 237 242 232 252 267 265 260 275 268 260 194 211 186 182 182 186 184 179 177 181 186 184 181 181 180 175 175 176 178 177 173 173
329 328 329 328 327 323 324 320 319 321 323 354 342 329 267 312 7 59 72 261 267 282 287 270 273 260 259 266 322 98 136 168 276 288 198 151 130 176 148 130 188 200 186 191 181 142 200 256 236 220 212 214 229 231 229 225 234 234 244 251 247 256 263 298 240 60 339 181 197 181 186 192 178 173 183 187 181 183 184 183 180 179 177 176 179 177 173 177
328 329 328 329 327 326 321 321 309 293 339 310 282 241 289 288 23 57 61 216 294 305 211 231 205 244 239 215 230 103 121 239 170 273 237 115 126 203 140 171 199 180 201 197 196 173 200 231 223 219 216 212 224 227 229 226 240 238 225 227 245 260 252 212 279 327 310 309 191 150 99 52 171 182 194 197 184 179 185 179 182 190 185 179 177 176 175 177
327 327 329 329 330 327 320 316 346 339 305 294 208 331 347 319 48 108 98 335 323 270 232 251 186 253 280 326 59 62 239 294 216 216 199 107 180 59 178 225 143 219 212 200 206 208 227 240 220 201 229 235 229 236 230 208 231 253 233 218 232 243 257 267 268 312 352 337 97 131 103 236 231 205 191 165 176 192 184 180 185 184 181 176 180 182 180 180
326 326 328 331 331 334 313 330 4 328 333 292 17 332 335 357 5 76 90 79 319 270 111 213 43 192 50 181 119 115 70 321 264 233 131 193 154 137 139 334 167 228 215 188 198 189 221 233 217 194 204 221 229 234 232 193 219 227 255 216 225 237 250 260 274 2 286 119 287 97 140 222 261 221 205 186 187 186 185 188 185 185 185 182 184 184 181 181
325 324 326 331 335 342 358 4 330 309 349 318 343 331 323 329 18 42 60 8 341 236 162 298 15 305 337 42 104 62 55 272 307 339 56 236 126 103 104 267 349 290 18 330 162 255 197 220 228 220 199 208 215 233 239 194 192 233 245 232 231 271 258 258 261 221 234 174 128 161 148 152 191 239 217 199 188 186 192 198 191 190 189 188 186 185 183 181
322 322 325 330 329 337 218 302 328 333 242 252 318 324 312 328 359 55 79 67 297 216 62 256 271 295 322 297 85 135 192 219 18 255 190 226 93 11 94 224 198 243 288 68 133 252 6 324 233 242 233 203 212 212 234 198 188 216 255 244 248 252 272 285 319 274 238 297 269 334 112 85 212 218 198 175 187 199 204 202 200 195 193 191 189 188 188 184
320 321 323 327 332 308 208 197 225 257 242 285 310 307 312 335 51 96 120 111 79 319 314 132 320 305 308 96 85 233 310 139 156 248 358 31 321 142 229 251 190 230 258 193 222 287 278 343 305 246 191 217 214 213 221 206 208 239 244 256 212 267 266 17 7 355 334 122 262 266 191 132 250 265 155 183 196 201 209 205 202 197 191 192 190 191 190 186
315 319 322 329 330 283 134 220 231 241 280 293 294 303 317 36 37 38 29 50 111 13 295 309 9 217 164 117 311 201 214 229 197 280 33 171 262 28 207 206 204 11 327 325 254 242 229 255 244 284 226 211 228 215 208 191 218 224 231 253 266 331 359 353 82 83 33 259 254 238 248 129 235 230 172 171 203 203 212 205 203 200 199 196 196 192 190 188
315 313 317 325 298 276 325 290 251 247 252 293 311 304 358 38 105 118 77 237 27 302 310 220 263 351 148 138 268 283 138 238 99 132 14 18 9 16 353 7 1 16 20 348 306 297 319 197 276 269 242 298 285 306 231 183 210 190 164 234 275 322 2 26 336 45 228 280 263 236 112 122 158 296 217 197 201 205 200 195 191 194 198 196 194 194 193 191
313 311 313 314 225 263 200 222 248 340 339 341 334 356 63 46 8 94 62 337 68 276 245 282 183 206 190 226 185 180 188 28 51 56 96 66 43 30 5 65 344 3 341 343 319 324 335 13 241 269 267 224 310 38 306 20 38 167 89 39 146 271 3 283 4 280 220 215 250 189 59 32 239 212 194 214 211 212 215 209 196 194 196 197 196 194 192 192
315 311 312 287 204 190 237 250 305 316 334 334 357 45 66 93 60 313 15 326 83 152 316 230 343 16 60 26 47 135 187 118 345 89 85 28 99 69 48 45 353 129 168 306 49 11 295 311 5 271 241 12 347 317 324 341 358 54 176 133 120 112 109 203 268 204 297 299 263 224 119 213 248 272 209 200 210 208 209 207 207 200 195 193 195 192 191 192
313 314 317 190 183 206 232 223 247 315 328 354 46 28 59 63 33 354 66 358 339 322 350 3 334 338 76 104 333 58 49 11 90 353 39 53 48 30 13 24 14 1 72 30 65 313 46 353 325 21 353 324 10 4 250 190 216 209 164 144 174 139 160 193 178 169 211 219 286 330 78 235 126 248 206 196 200 211 205 210 203 198 200 198 192 190 189 189
312 298 253 253 236 236 233 238 243 226 15 2 48 73 86 61 12 351 355 342 331 341 355 340 323 297 329 49 162 36 108 6 360 65 58 68 17 44 18 9 6 16 345 72 342 46 323 259 248 20 258 287 3 336 346 333 335 271 179 94 101 229 145 156 203 142 222 7 346 343 189 193 198 247 261 193 204 202 208 212 203 198 195 188 184 188 193 193
319 321 238 258 216 254 196 218 194 151 82 39 68 50 67 49 346 332 336 273 310 347 336 349 24 13 346 25 350 72 347 115 337 79 83 81 47 44 32 5 11 10 18 84 340 12 21 288 332 325 327 55 358 343 322 320 259 297 54 205 206 182 137 89 330 258 154 55 257 235 328 299 299 308 284 277 189 201 215 209 201 199 188 179 187 192 195 194
355 336 6 300 264 248 200 172 151 123 103 82 76 60 74 58 334 277 346 356 282 310 31 30 7 9 0 6 15 360 352 57 28 83 41 105 51 7 1 28 10 10 16 130 30 140 120 268 311 17 340 14 348 329 359 28 358 69 345 256 276 15 109 126 206 321 105 139 257 146 200 299 347 276 306 299 278 249 191 212 203 197 181 181 192 192 192 194
326 317 257 269 245 263 168 153 125 121 74 68 58 92 324 85 304 52 323 347 0 15 70 38 360 17 42 23 9 10 344 84 305 46 76 25 104 338 21 339 360 11 3 25 117 318 72 327 296 45 3 3 340 357 25 357 22 58 314 290 352 10 291 326 103 272 271 219 246 292 207 273 191 255 326 302 262 269 258 227 222 199 183 189 192 195 195 193
253 342 352 266 248 187 174 133 96 86 60 40 15 67 5 82 16 22 352 354 12 46 52 18 88 22 59 44 326 13 23 38 19 58 87 8 77 334 10 340 353 360 22 41 52 320 21 349 302 27 39 327 359 25 31 329 342 358 3 11 327 142 178 113 196 180 118 230 79 287 357 235 268 261 324 338 348 358 332 287 227 209 194 195 195 194 193 188
355 29 304 274 197 164 111 79 64 51 56 75 355 82 273 56 13 19 17 22 27 39 20 43 17 55 27 52 30 10 15 44 60 53 63 15 106 5 18 353 359 340 41 45 59 6 33 57 288 287 350 42 23 9 36 360 350 341 5 8 360 347 251 166 268 154 163 178 163 159 330 327 1 338 11 7 360 349 350 325 223 215 198 196 195 193 188 187
298 119 267 282 115 101 50 48 48 65 118 296 60 56 51 44 10 15 17 24 16 60 63 62 48 59 4 29 25 355 56 40 50 64 60 54 31 68 3 355 350 4 338 36 44 8 20 15 319 322 346 17 126 38 347 319 303 309 52 42 348 11 2 40 292 311 138 116 206 149 229 193 25 345 360 8 352 360 356 349 277 214 191 197 198 194 185 186
37 30 277 312 336 48 70 29 308 188 85 63 47 21 58 29 38 10 19 14 45 22 18 65 44 61 26 56 75 22 49 51 48 81 38 77 34 48 349 1 24 38 55 45 329 345 64 144 8 316 255 283 272 287 275 326 56 85 50 21 4 17 12 26 78 297 342 291 163 154 166 182 108 360 4 2 2 11 6 358 353 260 199 193 194 189 189 187
33 252 267 297 290 80 78 50 8 27 50 79 72 50 43 59 45 24 32 13 39 7 29 30 18 54 32 22 32 50 30 72 23 70 106 76 56 30 10 21 357 21 66 12 351 350 1 37 340 314 295 261 229 188 95 45 29 36 19 16 9 359 345 293 244 255 26 342 24 360 200 217 4 8 2 352 4 9 18 13 360 8 3 243 199 186 187 189
316 296 317 307 351 93 67 59 16 19 61 83 80 80 57 65 36 38 35 24 27 5 48 29 25 36 63 38 53 47 7 116 26 49 56 32 79 31 24 12 12 39 26 319 70 318 57 344 86 334 342 323 31 50 3 12 47 50 328 350 341 335 332 320 238 319 87 85 341 3 224 326 339 349 358 357 11 13 23 15 14 13 1 352 264 212 188 189
277 252 244 304 4 39 64 25 114 81 31 49 80 79 61 44 21 57 47 33 360 36 16 37 38 45 46 35 55 55 51 59 136 27 76 61 81 30 32 16 7 51 24 42 36 21 91 85 80 76 313 299 305 9 358 339 339 331 321 337 352 354 344 354 7 338 58 306 5 280 278 322 319 350 353 357 10 20 13 20 16 12 14 13 5 145 273 222
24 31 317 346 358 17 31 349 76 86 66 41 43 27 47 88 49 31 30 55 26 62 62 74 38 56 42 42 46 30 29 48 70 25 43 39 20 40 6 13 9 33 44 34 21 16 119 91 106 145 170 238 253 252 258 269 295 305 323 333 350 338 324 331 309 44 2 301 317 259 91 339 342 342 343 347 0 23 33 25 12 11 12 18 20 48 60 42
217 60 356 342 328 27 20 14 36 36 21 5 79 330 43 36 5 45 7 76 21 47 59 37 37 46 16 49 37 56 20 30 32 68 36 99 113 49 351 32 33 40 29 29 19 23 54 43 256 153 205 232 255 269 287 296 291 293 311 315 332 320 326 341 349 299 293 353 318 260 30 4 321 320 330 344 355 23 40 35 28 16 15 14 15 23 37 36
57 299 60 257 108 344 11 3 35 44 31 53 67 34 44 38 33 26 349 13 34 32 61 355 40 46 40 51 63 58 1 60 36 16 338 30 71 22 44 16 69 38 34 18 12 92 111 78 293 17 317 314 318 320 317 308 292 294 295 300 308 320 326 320 300 298 327 279 251 293 328 333 310 308 329 7 354 37 52 52 45 26 13 10 19 24 27 26
88 311 306 325 77 350 45 48 49 53 41 26 98 43 48 39 32 8 8 349 20 20 47 69 24 42 57 50 61 51 26 34 358 352 19 358 10 357 3 349 352 38 42 17 13 50 73 286 283 12 332 331 327 326 322 323 325 322 319 317 289 293 288 286 287 289 283 267 263 276 320 358 293 357 8 21 358 27 49 59 64 49 14 16 18 24 22 21
25 26 331 350 92 51 14 38 36 44 51 12 64 13 56 51 29 354 18 32 20 346 24 67 19 23 38 57 59 71 75 118 100 23 347 39 344 30 330 31 323 340 39 26 26 327 96 297 356 342 347 328 319 321 333 337 336 317 315 323 315 276 275 272 277 283 289 287 299 306 329 320 271 18 28 49 23 22 42 43 48 65 38 27 27 21 20 19
290 66 228 355 15 353 17 47 60 59 45 5 58 5 59 38 33 348 337 350 57 33 22 89 75 75 37 39 55 68 36 47 23 12 322 39 308 220 86 274 19 326 345 315 73 293 97 255 23 69 17 311 340 344 329 336 324 311 303 316 321 293 281 284 297 298 298 292 298 304 320 285 300 351 41 50 45 40 40 35 41 55 51 41 31 29 19 15
342 265 53 108 69 359 69 15 44 55 36 312 40 54 66 40 35 29 9 339 347 262 18 22 115 95 30 67 69 32 42 118 275 290 298 263 249 282 249 232 267 277 306 53 272 39 156 122 20 320 327 256 307 353 338 325 338 310 288 280 307 328 328 339 327 332 340 336 343 352 323 299 276 290 62 28 54 52 45 25 26 36 46 42 35 36 27 8